[Date Prev][Date Next][Thread Prev][Thread Next] - [Date Index][Thread Index][Author Index]
2 line ISS keps 5-5
- Subject: [sarex] 2 line ISS keps 5-5
- From: "Dr Dave Larsen [ PhD ]" <doc@xxxxxxxxxxx>
- Date: Sat, 5 May 2001 02:58:31 -0700
ISS
1 25544U 98067A 01125.01859443 .00050534 00000-0 63772-3 0 9370
2 25544 51.5733 306.2879 0017087 12.9383 127.9513 15.58892852140332
----
Via the sarex mailing list at AMSAT.ORG courtesy of AMSAT-NA.
To unsubscribe, send "unsubscribe sarex" to Majordomo@amsat.org
AMSAT Home